Weather History for KMYL - September, 2012

Change the Weather History Date:

Sunday, September 9, 2012

  Actual Average Record
Temperature  
Mean Temperature 63 °F 53 °F  
Max Temperature 81 °F 70 °F 87 °F (1981)
Min Temperature 44 °F 36 °F 24 °F (1988)
Degree Days  
Heating Degree Days 2 12  
Month to date heating degree days 60 96  
Since 1 July heating degree days 130 424  
Cooling Degree Days 0 0  
Month to date cooling degree days 0 0  
Year to date cooling degree days 172 25  
Growing Degree Days 13 (Base 50)    
Moisture  
Dew Point 35 °F    
Average Humidity 41    
Maximum Humidity 65    
Minimum Humidity 17    
Precipitation  
Precipitation 0.00 in 0.03 in 1.07 in (1998)
Month to date precipitation T 0.25  
Year to date precipitation 18.14 13.29  
Sea Level Pressure  
Sea Level Pressure 29.90 in    
Wind  
Wind Speed 4 mph (SSW)    
Max Wind Speed 25 mph    
Max Gust Speed 33 mph    
Visibility 10 miles    
Events      
T = Trace of Precipitation, MM = Missing Value Source: NWS Daily Summary

Daily Weather History Graph

Daily Weather History Graph

Search for Another Location

Airport or City:

Trip Planner

Search our weather history database for the weather conditions in past years. The results will help you decide how hot, cold, wet, or windy it might be!

Date:

Astronomy

Sep. 09, 2012 Rise Set
Actual Time 7:16 AM MDT 8:05 PM MDT
Civil Twilight 6:46 AM MDT 8:35 PM MDT
Nautical Twilight 6:11 AM MDT 9:10 PM MDT
Astronomical Twilight 5:34 AM MDT 9:47 PM MDT
Moon 12:37 AM MDT (9/9) 4:05 PM MDT (9/9)
Length of Visible Light 13h 48m
Length of Day
12h 48m
Last Quarter, 39% of the Moon is Illuminated
Sep 9
Last Quarter
Sep 15
New
Sep 22
First Quarter
Sep 29
Full
Oct 8
Last Quarter

Hourly Weather History & Observations

Time (MDT) Temp. Dew Point Humidity Pressure Visibility Wind Dir Wind Speed Gust Speed Precip Events Conditions
12:51 AM 48.9 °F 32.0 °F 52% 30.00 in 10.0 mi Calm Calm - N/A   Clear
1:51 AM 50.0 °F 32.0 °F 50% 29.97 in 10.0 mi Calm Calm - N/A   Clear
2:51 AM 48.9 °F 32.0 °F 52% 29.96 in 10.0 mi Calm Calm - N/A   Partly Cloudy
3:51 AM 50.0 °F 32.0 °F 50% 29.95 in 10.0 mi Calm Calm - N/A   Clear
4:51 AM 48.9 °F 33.1 °F 54% 29.93 in 10.0 mi Calm Calm - N/A   Clear
5:51 AM 46.0 °F 34.0 °F 63% 29.93 in 10.0 mi Calm Calm - N/A   Partly Cloudy
6:51 AM 46.9 °F 32.0 °F 56% 29.92 in 10.0 mi Calm Calm - N/A   Partly Cloudy
7:51 AM 46.9 °F 36.0 °F 66% 29.94 in 10.0 mi Calm Calm - N/A   Mostly Cloudy
8:51 AM 57.9 °F 39.0 °F 49% 29.94 in 10.0 mi Calm Calm - N/A   Mostly Cloudy
9:51 AM 59.0 °F 39.9 °F 49% 29.94 in 10.0 mi Calm Calm - N/A   Mostly Cloudy
10:51 AM 64.0 °F 42.1 °F 45% 29.94 in 10.0 mi Calm Calm - N/A   Partly Cloudy
11:51 AM 72.0 °F 41.0 °F 33% 29.93 in 10.0 mi Calm Calm - N/A   Mostly Cloudy
12:51 PM 75.0 °F 37.0 °F 25% 29.92 in 10.0 mi South 9.2 mph 20.7 mph N/A   Mostly Cloudy
1:51 PM 78.1 °F 39.0 °F 25% 29.91 in 10.0 mi SSW 12.7 mph 25.3 mph N/A   Scattered Clouds
2:51 PM 78.1 °F 39.0 °F 25% 29.89 in 10.0 mi South 13.8 mph 21.9 mph N/A   Scattered Clouds
3:51 PM 80.1 °F 37.0 °F 21% 29.86 in 10.0 mi South 23.0 mph 33.4 mph N/A   Mostly Cloudy
4:51 PM 80.1 °F 34.0 °F 19% 29.85 in 10.0 mi South 11.5 mph 19.6 mph N/A   Partly Cloudy
5:51 PM 79.0 °F 30.0 °F 17% 29.84 in 10.0 mi SW 13.8 mph 21.9 mph N/A   Partly Cloudy
6:51 PM 77.0 °F 35.1 °F 22% 29.83 in 10.0 mi South 11.5 mph - N/A   Scattered Clouds
7:51 PM 73.0 °F 32.0 °F 22% 29.84 in 10.0 mi SSW 8.1 mph - N/A   Clear
8:51 PM 66.9 °F 33.1 °F 28% 29.82 in 10.0 mi Calm Calm - N/A   Partly Cloudy
9:51 PM 61.0 °F 34.0 °F 36% 29.83 in 10.0 mi Calm Calm - N/A   Clear
10:51 PM 57.9 °F 34.0 °F 41% 29.83 in 10.0 mi Calm Calm - N/A   Clear
11:51 PM 55.0 °F 35.1 °F 47% 29.84 in 10.0 mi Calm Calm - N/A   Clear